Flag for U.S.A. Weather past 2 weeks in Sterling Heights, Michigan, U.S.A.

Now
63 °F

Fog.


Feels Like: 63 °F
Forecast: 63 / 77 °F
Wind: 2 mph from North

Location: Selfridge Air National Guard Base

Current Time: Aug 29, 2015 at 3:25:01 AM

Latest Report: Aug 29, 2015 at 2:58 AM


Visibility: 5 mi

Pressure: 30.12 "Hg

Humidity: 93%

Dew point: 60 °F

Location of Sterling HeightsLocation

Historic Weather in Sterling Heights — Graph

°F

Sterling Heights temperature yesterday

Maximum temperature yesterday: 73 °F (at 2:55 PM)
Minimum temperature yesterday: 50 °F (at 6:03 AM)
Average temperature yesterday: 62 °F

Past Weeks' High & Low Weather Summary

 TemperatureHumidityPressure
High89 °F (Aug 17, 12:55 PM)100% (Aug 28, 6:03 AM)30.23 "Hg (Aug 28, 6:03 AM)
Low50 °F (Aug 28, 6:03 AM)41% (Aug 16, 8:55 AM)29.66 "Hg (Aug 20, 2:58 AM)
Average69 °F74%30.01 "Hg
* Reported Aug 14 1:58 AM — Aug 29 1:58 AM, Sterling Heights, Weather by CustomWeather, © 2015

Note: Actual official high and low records may vary slightly from our data, if they occured in-between our weather recording intervals... More about our weather records

Advertising

Sterling Heights weather history for previous 24 hours

 ConditionsComfort  
Time TempWeatherWind HumidityBarometerVisibility
1:58 AM
Sat, Aug 29
65 °FMostly cloudy.5 mph88%30.14 "Hg10 mi
12:58 AM64 °FOvercast.3 mph88%30.14 "Hg10 mi
11:58 PM
Fri, Aug 28
62 °FPassing clouds.2 mph93%30.14 "Hg10 mi
10:58 PM64 °FPassing clouds.3 mph91%30.14 "Hg10 mi
9:58 PM64 °FClear.5 mph88%30.14 "Hg10 mi
8:58 PM65 °FSunny.7 mph84%30.13 "Hg10 mi
7:55 PM69 °FOvercast.7 mph80%30.14 "Hg10 mi
6:55 PM70 °FOvercast.9 mph73%30.14 "Hg10 mi
5:55 PM70 °FOvercast.7 mph72%30.15 "Hg10 mi
4:55 PM71 °FOvercast.8 mph71%30.16 "Hg10 mi
3:55 PM73 °FPartly sunny.8 mph63%30.16 "Hg7 mi
2:55 PM73 °FScattered clouds.8 mph65%30.18 "Hg7 mi
1:55 PM71 °FScattered clouds.8 mph70%30.20 "Hg7 mi
12:55 PM69 °FBroken clouds.7 mph72%30.22 "Hg7 mi
11:55 AM67 °FScattered clouds.7 mph77%30.23 "Hg7 mi
10:55 AM65 °FPartly sunny.No wind81%30.23 "Hg7 mi
9:55 AM64 °FScattered clouds.No wind85%30.22 "Hg7 mi
8:55 AM58 °FScattered clouds.No wind93%30.22 "Hg7 mi
7:55 AM54 °FPartly sunny.No wind97%30.22 "Hg7 mi
7:03 AM50 °FPassing clouds.3 mph100%30.19 "Hg10 mi
6:03 AM50 °FFog.No wind100%30.17 "Hg6 mi
5:03 AM52 °FFog.No wind94%30.16 "Hg1 mi
4:58 AM52 °FFog.No wind97%30.17 "Hg4 mi
3:58 AM51 °FClear.2 mph96%30.18 "Hg10 mi
Weather by CustomWeather, © 2015

See weather overviewHow to use our weather pages